DAL1292 KFLL-KATL

Flight info

Callsign DAL1292
Flight time N/A
Altitude 34000
Route FRSBE2 STYMY Q77 MJAMS/N0464F350 Q77 SHRKS/N0464F340 LAIRI LARZZ JJEDI4
Aircraft A321/M-SDE3FGHIRWY/LB1

Departure

Time 2026-05-06 03:48
Airport Fort Lauderdale Hollywood International Airport (KFLL)

Arrival

Time N/A
Airport Hartsfield Jackson Atlanta International Airport (KATL)
Time Latitude Longitude Altitude Speed Heading
2026-05-06 03:15 26.07295 -80.14250 16 ft 0 kts 270°
2026-05-06 03:35 26.07289 -80.14241 17 ft 4 kts 297°
2026-05-06 03:35 26.07286 -80.14225 18 ft 4 kts 24°
2026-05-06 03:35 26.07304 -80.14205 16 ft 4 kts 41°
2026-05-06 03:36 26.07327 -80.14194 16 ft 4 kts 14°
2026-05-06 03:36 26.07340 -80.14193 16 ft 0 kts
2026-05-06 03:38 26.07353 -80.14192 16 ft 5 kts
2026-05-06 03:39 26.07389 -80.14191 16 ft 5 kts
2026-05-06 03:39 26.07417 -80.14191 16 ft 3 kts
2026-05-06 03:39 26.07442 -80.14190 16 ft 5 kts 360°
2026-05-06 03:39 26.07472 -80.14204 16 ft 8 kts 327°
2026-05-06 03:40 26.07539 -80.14244 16 ft 11 kts 319°
2026-05-06 03:40 26.07558 -80.14318 17 ft 11 kts 272°
2026-05-06 03:40 26.07559 -80.14410 17 ft 11 kts 270°
2026-05-06 03:40 26.07559 -80.14505 17 ft 14 kts 270°
2026-05-06 03:41 26.07559 -80.14605 17 ft 12 kts 270°
2026-05-06 03:41 26.07559 -80.14737 17 ft 23 kts 270°
2026-05-06 03:41 26.07562 -80.14918 16 ft 23 kts 273°
2026-05-06 03:41 26.07563 -80.15094 16 ft 22 kts 270°
2026-05-06 03:42 26.07563 -80.15255 16 ft 20 kts 270°
2026-05-06 03:42 26.07564 -80.15402 15 ft 18 kts 270°
2026-05-06 03:42 26.07565 -80.15535 16 ft 16 kts 270°
2026-05-06 03:42 26.07566 -80.15656 16 ft 15 kts 270°
2026-05-06 03:43 26.07566 -80.15789 16 ft 18 kts 271°
2026-05-06 03:43 26.07567 -80.15918 16 ft 16 kts 270°
2026-05-06 03:43 26.07568 -80.16033 17 ft 14 kts 270°
2026-05-06 03:43 26.07568 -80.16135 17 ft 13 kts 270°
2026-05-06 03:44 26.07569 -80.16273 17 ft 22 kts 270°
2026-05-06 03:44 26.07569 -80.16440 17 ft 21 kts 270°
2026-05-06 03:44 26.07570 -80.16573 16 ft 12 kts 270°
2026-05-06 03:44 26.07583 -80.16626 16 ft 3 kts 311°
2026-05-06 03:45 26.07585 -80.16628 16 ft 0 kts 318°
2026-05-06 03:47 26.07619 -80.16641 18 ft 11 kts 356°
2026-05-06 03:47 26.07689 -80.16636 18 ft 3 kts 40°
2026-05-06 03:47 26.07693 -80.16613 18 ft 3 kts 82°
2026-05-06 03:47 26.07695 -80.16541 18 ft 26 kts 90°
2026-05-06 03:48 26.07693 -80.16072 20 ft 93 kts 90°
2026-05-06 03:48 26.07691 -80.15149 16 ft 143 kts 90°
2026-05-06 03:48 26.07678 -80.13912 230 ft 164 kts 91°
2026-05-06 03:48 26.07693 -80.12686 942 ft 159 kts 89°
2026-05-06 03:49 26.07743 -80.11444 1511 ft 162 kts 90°
2026-05-06 03:49 26.07792 -80.10170 1928 ft 171 kts 86°
2026-05-06 03:49 26.08163 -80.08834 2045 ft 193 kts 63°
2026-05-06 03:49 26.09041 -80.07599 2165 ft 214 kts 45°
2026-05-06 03:50 26.10328 -80.06620 2357 ft 237 kts 28°
2026-05-06 03:50 26.11952 -80.06013 2736 ft 254 kts 21°
2026-05-06 03:50 26.13652 -80.05373 3379 ft 260 kts 22°
2026-05-06 03:50 26.15416 -80.04939 4076 ft 263 kts
2026-05-06 03:51 26.17261 -80.05140 4651 ft 271 kts 344°
2026-05-06 03:51 26.19021 -80.05871 5414 ft 269 kts 341°
2026-05-06 03:51 26.20773 -80.06619 6126 ft 271 kts 333°
2026-05-06 03:51 26.22271 -80.07912 6616 ft 277 kts 311°
2026-05-06 03:52 26.23273 -80.09720 7326 ft 275 kts 295°
2026-05-06 03:52 26.23883 -80.11728 7934 ft 277 kts 291°
2026-05-06 03:52 26.24556 -80.13729 8681 ft 276 kts 295°
2026-05-06 03:52 26.25322 -80.15738 9284 ft 278 kts 297°
2026-05-06 03:53 26.26327 -80.17563 9963 ft 278 kts 308°
2026-05-06 03:53 26.27427 -80.19342 10246 ft 291 kts 304°
2026-05-06 03:53 26.28572 -80.21295 10359 ft 310 kts 303°
2026-05-06 03:53 26.29771 -80.23401 10480 ft 327 kts 302°
2026-05-06 03:54 26.31001 -80.25593 10793 ft 337 kts 302°
2026-05-06 03:54 26.32236 -80.27795 11272 ft 341 kts 302°
2026-05-06 03:54 26.33499 -80.30039 11823 ft 344 kts 302°
2026-05-06 03:54 26.34778 -80.32304 12332 ft 346 kts 302°
2026-05-06 03:55 26.36070 -80.34586 12858 ft 349 kts 302°
2026-05-06 03:55 26.37372 -80.36883 13380 ft 352 kts 302°
2026-05-06 03:55 26.38689 -80.39205 13910 ft 355 kts 302°
2026-05-06 03:55 26.40015 -80.41545 14372 ft 358 kts 302°
2026-05-06 03:56 26.41347 -80.43901 14860 ft 360 kts 302°
2026-05-06 03:56 26.42687 -80.46269 15323 ft 362 kts 302°
2026-05-06 03:56 26.44035 -80.48657 15809 ft 365 kts 302°
2026-05-06 03:56 26.45385 -80.51052 16278 ft 367 kts 302°
2026-05-06 03:57 26.46812 -80.53424 16738 ft 369 kts 309°
2026-05-06 03:57 26.48630 -80.55455 17207 ft 371 kts 321°
2026-05-06 03:57 26.50812 -80.57004 17679 ft 374 kts 333°
2026-05-06 03:57 26.53265 -80.58004 18125 ft 378 kts 342°
2026-05-06 03:58 26.55808 -80.58804 18541 ft 380 kts 342°
2026-05-06 03:58 26.58357 -80.59611 18939 ft 382 kts 342°
2026-05-06 03:58 26.60920 -80.60423 19333 ft 382 kts 342°
2026-05-06 03:58 26.63483 -80.61238 19722 ft 383 kts 342°
2026-05-06 03:59 26.66054 -80.62056 20104 ft 384 kts 342°
2026-05-06 03:59 26.68628 -80.62874 20486 ft 385 kts 341°
2026-05-06 03:59 26.71209 -80.63697 20875 ft 386 kts 341°
2026-05-06 03:59 26.73797 -80.64521 21235 ft 387 kts 341°
2026-05-06 04:00 26.76398 -80.65347 21592 ft 388 kts 341°
2026-05-06 04:00 26.78993 -80.66171 21953 ft 389 kts 341°
2026-05-06 04:00 26.81593 -80.67001 22307 ft 390 kts 341°